[[{"header":{"parameterUnit":"m.s-1","parameterCategory":2,"la1":30.2991,"la2":30.254,"lo1":-89.0895,"lo2":-89.0444,"dy":0.0017,"dx":0.0017,"nx":28,"ny":28,"refTime":"2024-06-24T03:00:00:Z","depth":"0","parameterNumber":2,"parameterNumberName":"U-component_of_CURRENTS"},"data":[0,0,0,0,0,0,0,0,0,0,0,0,0,0,0,0,0,0,0,0,0,0,0,0,0,0,0,0,0,0,0,0,0,0,0,0,0,0,0,0,0,0,0,0,0,0,0,0,0,0,0,0,0,0,0,0,0,0,0.4816,0.4817,0,0.4923,0.4923,0.4924,0.5055,0.5058,0.5061,0.5063,0.5079,0.5077,0.5075,0,0,0,0,0,0,0,0,0,0,0,0,0,0.4687,0.4688,0.4816,0.4818,0.4819,0.4923,0.4923,0.4924,0.5055,0.5058,0.5061,0.5064,0.508,0.5078,0.5075,0,0,0,0,0,0,0,0,0,0,0,0,0,0.4757,0.4689,0.4815,0.4902,0.4911,0.4922,0.4923,0.4925,0.5054,0.5058,0.5062,0.5066,0.5081,0.5078,0.5075,0.4976,0,0,0.5066,0.5064,0,0,0,0,0,0,0,0,0.4753,0.4761,0.4887,0.4896,0.4907,0.4986,0.4885,0.494,0.5053,0.4993,0.5063,0.5068,0.5041,0.5041,0.5045,0.4977,0.4978,0.5065,0.5063,0.5062,0.5061,0,0,0,0,0,0,0,0.4748,0.4757,0.4852,0.4889,0.4901,0.4923,0.4937,0.4895,0.4986,0.4999,0.501,0.5031,0.5045,0.5047,0.5046,0.4978,0.5065,0.5063,0.5061,0.506,0.5006,0.5006,0,0,0,0,0,0,0.4745,0.4752,0.4848,0.4855,0.4845,0.4923,0.4938,0.4951,0.4989,0.5002,0.5027,0.5037,0.5051,0.5049,0.5047,0.507,0.5062,0.5059,0.5058,0.5005,0.5006,0.5006,0,0,0,0,0,0,0.4742,0.4752,0.4844,0.4812,0.4826,0.4922,0.4934,0.4951,0.4975,0.5014,0.5024,0.5039,0.5054,0.5051,0.5045,0.5067,0.5058,0.5055,0.5005,0.5005,0.5006,0.5027,0,0,0,0,0,0,0.4737,0.475,0.4745,0.4811,0.4828,0.488,0.4932,0.495,0.4984,0.4998,0.5025,0.5031,0.5057,0.5049,0.5041,0.5062,0.5053,0.5004,0.5005,0.5006,0.5026,0.5029,0.5031,0,0,0,0,0,0.4732,0.4728,0.4743,0.4755,0.4822,0.4881,0.489,0.4967,0.4981,0.4999,0.5018,0.5031,0.505,0.5045,0.5037,0.5058,0.5004,0.5005,0.5006,0.5025,0.5028,0.5031,0,0,0,0,0,0,0.467,0.4743,0.4762,0.4779,0.4834,0.4907,0.4924,0.4953,0.4976,0.4985,0.5008,0.5014,0.5033,0.5021,0.5015,0.5047,0.5038,0.5037,0.5056,0.5058,0.506,0.5155,0.505,0,0,0,0,0,0.4647,0.4667,0.4738,0.4751,0.4776,0.4835,0.4859,0.491,0.4948,0.4964,0.4981,0.4998,0.5019,0.5021,0.5036,0.5009,0.5077,0.5027,0.5029,0.5031,0.5103,0.5191,0.521,0.5009,0.5009,0.5009,0,0,0.4628,0.4668,0.468,0.4738,0.478,0.4833,0.486,0.4907,0.4955,0.4951,0.4993,0.4998,0.5016,0.5037,0.5042,0.5032,0.5118,0.5032,0.5034,0.5107,0.5195,0.5215,0.5233,0.501,0.501,0.5009,0,0,0.4622,0.4631,0.4661,0.4704,0.4774,0.4817,0.4829,0.4894,0.4933,0.4948,0.4988,0.5017,0.4998,0.5062,0.5078,0.5085,0.5133,0.5066,0.5144,0.5226,0.5245,0.5263,0.5359,0.5386,0.5059,0.5059,0.5059,0,0.4595,0.4644,0.4676,0.4722,0.4768,0.4812,0.4866,0.49,0.4956,0.4994,0.4972,0.5041,0.5035,0.5123,0.5148,0.5099,0.5158,0.5127,0.5234,0.5253,0.5271,0.5366,0.5395,0.506,0.506,0.506,0.506,0,0.4632,0.4667,0.4686,0.4765,0.481,0.4856,0.4925,0.4963,0.4983,0.5031,0.5104,0.5111,0.5179,0.5157,0.5155,0.5277,0.5283,0.5232,0.5235,0.5293,0.5388,0.5418,0.5062,0.5062,0.5061,0.5061,0,0,0.4603,0.4694,0.4705,0.4758,0.4838,0.4891,0.4958,0.5055,0.5133,0.5151,0.526,0.5285,0.5311,0.5338,0.5335,0.5401,0.5545,0.5377,0.538,0.5491,0.5757,0.5685,0.5711,0.5507,0.5512,0.5517,0.5768,0,0.4633,0.472,0.4761,0.4858,0.492,0.4978,0.5052,0.5138,0.5195,0.5299,0.5338,0.5425,0.5371,0.5414,0.5475,0.5549,0.5628,0.5485,0.5673,0.5681,0.5624,0.5744,0.545,0.5644,0.5797,0.5802,0.5806,0,0.4679,0.4736,0.4829,0.4944,0.4977,0.5035,0.5184,0.5256,0.5396,0.544,0.5537,0.5582,0.5723,0.5636,0.5832,0.5744,0.5782,0.5812,0.582,0.5788,0.5667,0.5613,0.5692,0.5547,0.5852,0.5848,0.5845,0,0.4694,0.4793,0.487,0.4907,0.5036,0.5094,0.5165,0.5302,0.5406,0.5558,0.5659,0.5786,0.59,0.5967,0.6037,0.5956,0.6243,0.6119,0.61,0.6094,0.5908,0.5877,0.5892,0.6274,0.6273,0.6273,0.6272,0,0.4734,0.4804,0.4881,0.4935,0.5062,0.5122,0.5277,0.5364,0.552,0.5661,0.5747,0.5907,0.5995,0.6148,0.6149,0.6255,0.6337,0.6195,0.6179,0.5901,0.5868,0.5782,0.5711,0.6282,0.628,0.6278,0.6277,0,0.4786,0.4814,0.4934,0.5046,0.5084,0.5186,0.5352,0.5465,0.5593,0.5789,0.5856,0.608,0.6272,0.6347,0.65,0.6427,0.6321,0.6497,0.6181,0.6122,0.5903,0.5844,0.5741,0.5582,0.6525,0.6525,0.6525,0,0.4822,0.4888,0.5028,0.5095,0.5152,0.5285,0.5382,0.5505,0.5616,0.5889,0.5991,0.6255,0.6378,0.6603,0.6547,0.6572,0.637,0.6319,0.6097,0.593,0.5853,0.5623,0.5479,0.5857,0.5851,0.5847,0.5843,0,0.4931,0.4983,0.5075,0.5188,0.5282,0.5406,0.5524,0.5608,0.5751,0.5869,0.6051,0.6169,0.6402,0.6315,0.638,0.6344,0.5996,0.6229,0.6127,0.5432,0.5116,0.4937,0.5678,0.5804,0.5808,0.5811,0.5813,0.5814,0.5012,0.5089,0.5171,0.5264,0.5364,0.5432,0.5431,0.5532,0.5615,0.5648,0.5938,0.5931,0.601,0.6052,0.601,0.5767,0.577,0.5542,0.5524,0.534,0.505,0.5737,0.5784,0.5788,0.5791,0.5794,0.5796,0,0.5047,0.5107,0.5224,0.5262,0.5295,0.537,0.5438,0.5335,0.5268,0.5397,0.5442,0.5424,0.535,0.5376,0.5263,0.5071,0.48,0.4942,0.4531,0.4455,0.5135,0.4966,0.4748,0.4749,0.4749,0.4749,0.4749,0.4749,0.5063,0.5124,0.5143,0.5125,0.5147,0.5053,0.5021,0.4884,0.4863,0.469,0.4609,0.4698,0.4894,0.4902,0.4697,0.4574,0.4239,0.4023,0.4092,0.455,0.4601,0.465,0.4475,0.4158,0.4158,0.3159,0.3152,0.3146]},{"header":{"parameterUnit":"m.s-1","parameterCategory":2,"la1":30.2991,"la2":30.254,"lo1":-89.0895,"lo2":-89.0444,"dy":0.0017,"dx":0.0017,"nx":28,"ny":28,"refTime":"2024-06-24T03:00:00:Z","depth":"0","parameterNumber":3,"parameterNumberName":"V-component_of_CURRENTS"},"data":[0,0,0,0,0,0,0,0,0,0,0,0,0,0,0,0,0,0,0,0,0,0,0,0,0,0,0,0,0,0,0,0,0,0,0,0,0,0,0,0,0,0,0,0,0,0,0,0,0,0,0,0,0,0,0,0,0,0,0.004,0.0039,0,-0.0024,-0.0025,-0.0026,-0.0119,-0.0121,-0.0122,-0.0124,-0.0234,-0.0236,-0.0237,0,0,0,0,0,0,0,0,0,0,0,0,0,0.0063,0.0063,0.004,0.0039,0.0039,-0.0024,-0.0025,-0.0026,-0.0119,-0.0121,-0.0122,-0.0124,-0.0234,-0.0236,-0.0238,0,0,0,0,0,0,0,0,0,0,0,0,0,0.0031,0.0063,0.004,-0.0015,-0.002,-0.0024,-0.0025,-0.0026,-0.0118,-0.0121,-0.0123,-0.0125,-0.0233,-0.0236,-0.0238,-0.0205,0,0,-0.0245,-0.0246,0,0,0,0,0,0,0,0,0.0033,0.003,-0.0006,-0.0011,-0.0017,-0.0065,-0.0058,-0.0088,-0.0118,-0.0082,-0.0124,-0.0126,-0.018,-0.0187,-0.0194,-0.021,-0.0214,-0.0245,-0.0246,-0.0247,-0.0248,0,0,0,0,0,0,0,0.0035,0.0032,0.0014,-0.0007,-0.0013,-0.0043,-0.005,-0.0064,-0.0118,-0.0085,-0.0092,-0.0097,-0.0184,-0.0191,-0.0197,-0.0216,-0.0245,-0.0247,-0.0248,-0.0249,-0.0252,-0.0251,0,0,0,0,0,0,0.0048,0.0035,0.0016,0.0012,0.0003,-0.0041,-0.0049,-0.0048,-0.0117,-0.013,-0.0095,-0.0101,-0.0186,-0.0195,-0.0202,-0.0168,-0.0247,-0.0249,-0.0251,-0.0253,-0.0252,-0.0251,0,0,0,0,0,0,0.0049,0.0047,0.0019,0.0022,0.0016,-0.0039,-0.0037,-0.0048,-0.0055,-0.0124,-0.0138,-0.009,-0.0189,-0.0198,-0.021,-0.0173,-0.025,-0.0252,-0.0255,-0.0253,-0.0251,-0.0099,0,0,0,0,0,0,0.005,0.0048,0.0063,0.0023,0.0016,0.0037,-0.0035,-0.0048,-0.0054,-0.0063,-0.0124,-0.0138,-0.0191,-0.0207,-0.0213,-0.0178,-0.0254,-0.0256,-0.0254,-0.0252,-0.0106,-0.0093,-0.0081,0,0,0,0,0,0.0051,0.0084,0.0064,0.0062,0.0036,0.0039,0.0034,-0.0015,-0.0051,-0.0033,-0.0087,-0.0136,-0.0197,-0.0206,-0.0214,-0.0179,-0.0258,-0.0255,-0.0252,-0.0112,-0.0095,-0.0081,0,0,0,0,0,0,0.0107,0.0077,0.0054,0.0077,0.0067,0.0023,0.0038,0.0004,-0.0022,-0.0034,-0.0111,-0.0126,-0.0126,-0.017,-0.018,-0.0176,-0.0238,-0.0236,-0.0128,-0.0114,-0.0101,-0.005,-0.0256,0,0,0,0,0,0.0128,0.0143,0.011,0.0134,0.0133,0.009,0.0087,0.0056,0.0024,0.0009,-0.0041,-0.009,-0.0117,-0.013,-0.0164,-0.0147,-0.0175,-0.0135,-0.0122,-0.0111,-0.0076,-0.0088,-0.0072,-0.0241,-0.0241,-0.0241,0,0,0.0156,0.0144,0.0151,0.0147,0.0133,0.0158,0.0083,0.0093,0.0111,0.0004,0.0013,-0.0044,-0.0104,-0.0099,-0.0102,-0.0131,-0.0079,-0.0108,-0.0097,-0.0068,-0.0083,-0.0067,-0.0052,-0.0239,-0.024,-0.024,0,0,0.023,0.0213,0.0252,0.0253,0.0245,0.0221,0.0232,0.0196,0.0178,0.018,0.0104,0.0077,0.0031,0.0001,-0.0021,0.0046,-0.0015,0.0024,0.0136,0.0124,0.0139,0.0151,0.0138,0.0148,0.0033,0.0033,0.0033,0,0.0268,0.0308,0.0268,0.0309,0.0324,0.0259,0.0311,0.0295,0.0257,0.0264,0.02,0.015,0.0085,0.0113,0.012,0.0079,0.006,0.0087,0.0144,0.0156,0.0166,0.0149,0.0158,0.0041,0.004,0.0039,0.0039,0,0.0366,0.0402,0.0431,0.0457,0.047,0.0507,0.0478,0.0486,0.0445,0.0419,0.0424,0.0334,0.031,0.0274,0.0215,0.0263,0.0221,0.0161,0.0115,0.0193,0.0169,0.0176,0.0052,0.0049,0.0047,0.0045,0,0,0.0442,0.049,0.0503,0.0544,0.0552,0.0577,0.0621,0.0647,0.0687,0.0627,0.068,0.0603,0.0549,0.0521,0.0441,0.042,0.0452,0.0333,0.0329,0.0337,0.0435,0.0381,0.0382,0.0403,0.0405,0.0407,0.039,0,0.0535,0.0641,0.0639,0.0745,0.0797,0.0771,0.0822,0.0834,0.0814,0.0844,0.0769,0.0772,0.0646,0.0636,0.0603,0.0496,0.0478,0.0463,0.0344,0.0341,0.0297,0.0391,0.0368,0.0349,0.0396,0.0397,0.0398,0,0.063,0.0691,0.0809,0.0894,0.0917,0.0969,0.1043,0.1079,0.1098,0.1085,0.1077,0.1009,0.0991,0.0854,0.0749,0.0747,0.0618,0.0518,0.0513,0.0423,0.0302,0.0276,0.0359,0.01,0.0408,0.0407,0.0406,0,0.0698,0.0811,0.0911,0.0939,0.1021,0.1079,0.1121,0.1156,0.1207,0.1245,0.1285,0.1233,0.1227,0.1076,0.0863,0.0816,0.0734,0.0634,0.047,0.0463,0.0402,0.0387,0.0239,0.0569,0.0569,0.0569,0.0569,0,0.0791,0.0872,0.0956,0.1011,0.1141,0.1167,0.1293,0.1322,0.1389,0.1495,0.1417,0.1498,0.1282,0.1197,0.0969,0.0764,0.0817,0.053,0.0472,0.0451,0.0442,0.0176,0.0043,0.0568,0.0568,0.0568,0.0568,0,0.0847,0.0897,0.1018,0.1132,0.1174,0.1265,0.1392,0.148,0.1535,0.1676,0.1705,0.1716,0.1632,0.1382,0.1157,0.0921,0.0555,0.0603,0.0594,0.0536,0.0128,0.0006,-0.0183,-0.0286,0.0442,0.0441,0.044,0,0.0885,0.0957,0.11,0.1173,0.123,0.136,0.1452,0.1537,0.1642,0.1827,0.1916,0.1908,0.1957,0.1614,0.1185,0.081,0.0543,0.0509,0.0405,0.0142,-0.0038,-0.0146,-0.0226,0.0378,0.0377,0.0376,0.0375,0,0.0966,0.1014,0.1109,0.1253,0.1365,0.1508,0.1655,0.1765,0.1907,0.2071,0.2301,0.2377,0.2081,0.1733,0.1187,0.09,0.0326,0.0473,0.0209,-0.007,-0.0202,-0.0341,0.0343,0.0365,0.0366,0.0366,0.0367,0.0367,0.1021,0.1093,0.1209,0.1344,0.1478,0.1659,0.1801,0.1992,0.2228,0.2524,0.2581,0.275,0.2197,0.1488,0.1057,0.0228,0.025,-0.0041,-0.0157,-0.0234,-0.0365,0.0303,0.0245,0.0245,0.0245,0.0246,0.0246,0,0.1085,0.1162,0.1292,0.1462,0.1619,0.1683,0.1939,0.2122,0.2443,0.2726,0.2962,0.278,0.209,0.1348,0.024,-0.0319,-0.0508,-0.0614,-0.0782,-0.0825,-0.0225,-0.0262,-0.0442,-0.0442,-0.0442,-0.0441,-0.0441,-0.0441,0.1118,0.1236,0.1296,0.1545,0.168,0.1919,0.2083,0.2388,0.2635,0.3001,0.3114,0.3166,0.2567,0.0665,-0.0645,-0.0929,-0.1273,-0.1371,-0.1523,-0.1148,-0.1104,-0.1063,-0.1131,-0.149,-0.1491,-0.2082,-0.2088,-0.2092]}],[{"header":{"parameterUnit":"m.s-1","parameterCategory":2,"la1":30.2991,"la2":30.254,"lo1":-89.0895,"lo2":-89.0444,"dy":0.0017,"dx":0.0017,"nx":28,"ny":28,"refTime":"2024-06-24T03:00:00:Z","depth":"2","parameterNumber":2,"parameterNumberName":"U-component_of_CURRENTS"},"data":[0,0,0,0,0,0,0,0,0,0,0,0,0,0,0,0,0,0,0,0,0,0,0,0,0,0,0,0,0,0,0,0,0,0,0,0,0,0,0,0,0,0,0,0,0,0,0,0,0,0,0,0,0,0,0,0,0,0,0.3708,0.3709,0,0.3787,0.3788,0.3789,0.3865,0.3866,0.3868,0.3869,0.396,0.3961,0.3962,0,0,0,0,0,0,0,0,0,0,0,0,0,0.3619,0.362,0.3708,0.3709,0.3711,0.3787,0.3788,0.3789,0.3865,0.3866,0.3868,0.387,0.396,0.3961,0.3962,0,0,0,0,0,0,0,0,0,0,0,0,0,0.3671,0.362,0.3708,0.376,0.3766,0.3787,0.3788,0.3789,0.3865,0.3867,0.3868,0.387,0.3959,0.3961,0.3963,0.3936,0,0,0.3968,0.3969,0,0,0,0,0,0,0,0,0.3668,0.3673,0.3751,0.3757,0.3763,0.3821,0.379,0.384,0.3864,0.3824,0.3869,0.3871,0.3915,0.3921,0.3927,0.394,0.3944,0.3969,0.397,0.397,0.3971,0,0,0,0,0,0,0,0.3664,0.367,0.3736,0.3753,0.376,0.3779,0.3788,0.3799,0.3856,0.3827,0.3834,0.3847,0.3918,0.3925,0.393,0.3945,0.3968,0.397,0.3971,0.3972,0.4033,0.4034,0,0,0,0,0,0,0.3659,0.3667,0.3734,0.3739,0.3723,0.3779,0.3789,0.3798,0.3855,0.3867,0.3845,0.3851,0.3921,0.3927,0.3933,0.4003,0.397,0.3972,0.3973,0.4033,0.4033,0.4034,0,0,0,0,0,0,0.3656,0.3664,0.3731,0.3708,0.3718,0.3779,0.3788,0.3799,0.383,0.387,0.3881,0.387,0.3922,0.393,0.3969,0.4003,0.3973,0.3975,0.4032,0.4033,0.4034,0.4079,0,0,0,0,0,0,0.3653,0.3662,0.3671,0.3707,0.3719,0.3768,0.3787,0.3799,0.3835,0.3843,0.3893,0.3903,0.3925,0.3967,0.3971,0.4005,0.3976,0.4031,0.4032,0.4033,0.4077,0.4081,0.4085,0,0,0,0,0,0.365,0.3658,0.3671,0.368,0.3728,0.3769,0.3777,0.3824,0.3835,0.3857,0.3887,0.3902,0.3976,0.3968,0.3974,0.4009,0.4031,0.4032,0.4033,0.4075,0.408,0.4085,0,0,0,0,0,0,0.3636,0.3668,0.3683,0.3704,0.3744,0.3784,0.3804,0.3828,0.3866,0.3877,0.3905,0.3917,0.3969,0.397,0.396,0.4027,0.4007,0.4009,0.4037,0.4042,0.4046,0.4084,0.3978,0,0,0,0,0,0.3631,0.3638,0.3683,0.37,0.3719,0.3759,0.3781,0.3816,0.3852,0.3871,0.391,0.3941,0.397,0.3992,0.402,0.4046,0.4086,0.4071,0.4075,0.4079,0.4112,0.4182,0.4197,0.4038,0.4038,0.4038,0,0,0.362,0.3647,0.3647,0.3696,0.3725,0.3763,0.3778,0.3821,0.3862,0.3872,0.3939,0.3961,0.398,0.4027,0.4048,0.4037,0.4144,0.408,0.4084,0.4115,0.4186,0.4202,0.4216,0.4039,0.4038,0.4038,0,0,0.3618,0.3637,0.3649,0.3683,0.374,0.3771,0.3786,0.3844,0.3883,0.3935,0.3958,0.3998,0.4041,0.4072,0.4085,0.4119,0.4166,0.4128,0.4182,0.4249,0.4264,0.4277,0.4351,0.4371,0.4127,0.4127,0.4127,0,0.3609,0.364,0.3661,0.3697,0.3734,0.3776,0.3817,0.3854,0.3923,0.3958,0.3968,0.4056,0.4065,0.4126,0.4148,0.4133,0.419,0.4162,0.4258,0.4272,0.4285,0.4358,0.4379,0.4129,0.4129,0.4129,0.4129,0,0.3628,0.3657,0.367,0.3725,0.3768,0.3808,0.3869,0.3913,0.3959,0.4006,0.4091,0.4119,0.418,0.4179,0.418,0.4274,0.4291,0.4259,0.4252,0.4305,0.4377,0.4398,0.4133,0.4132,0.4131,0.4131,0,0,0.3603,0.3667,0.3676,0.3708,0.3791,0.3827,0.3892,0.397,0.4025,0.4094,0.4184,0.4226,0.4267,0.4286,0.4298,0.4354,0.448,0.4361,0.4363,0.4448,0.4664,0.456,0.4574,0.4481,0.4484,0.4488,0.4679,0,0.362,0.3674,0.3718,0.3782,0.3817,0.3878,0.3936,0.401,0.4086,0.4182,0.4232,0.4325,0.43,0.4355,0.4406,0.4482,0.454,0.4433,0.459,0.4595,0.4508,0.4595,0.4234,0.4364,0.4699,0.4703,0.4706,0,0.3639,0.3677,0.3737,0.3812,0.3837,0.3892,0.4004,0.407,0.4191,0.4256,0.4358,0.4422,0.4543,0.4501,0.4667,0.4615,0.4653,0.4688,0.4695,0.4605,0.4532,0.4364,0.4391,0.4742,0.4739,0.4736,0.4734,0,0.3611,0.3692,0.3742,0.377,0.3863,0.3916,0.3983,0.4099,0.4178,0.4342,0.4447,0.456,0.4674,0.4746,0.4832,0.4779,0.5012,0.4928,0.4865,0.4859,0.4584,0.4546,0.5033,0.5032,0.5032,0.5031,0.5031,0,0.3602,0.3641,0.3737,0.3758,0.3837,0.3921,0.4021,0.4105,0.4259,0.4362,0.451,0.4618,0.4751,0.4887,0.4913,0.4987,0.508,0.4918,0.4912,0.4587,0.4548,0.489,0.4871,0.5038,0.5037,0.5036,0.5034,0,0.3544,0.3605,0.3661,0.3771,0.382,0.3881,0.4036,0.4094,0.4284,0.4442,0.452,0.4728,0.489,0.5011,0.5145,0.5099,0.5163,0.5148,0.4769,0.4713,0.4942,0.4923,0.5103,0.5101,0.5099,0.5098,0.5097,0,0.3498,0.353,0.3653,0.368,0.3736,0.384,0.3896,0.408,0.4154,0.4471,0.4532,0.4787,0.4871,0.5078,0.5062,0.5123,0.5174,0.4795,0.459,0.4979,0.4956,0.4939,0.4922,0.4254,0.4246,0.4239,0.4234,0,0.3426,0.3489,0.3504,0.3566,0.3636,0.371,0.3821,0.3898,0.4118,0.4273,0.4449,0.4572,0.4795,0.4676,0.4795,0.4755,0.4755,0.4662,0.5204,0.4278,0.419,0.4163,0.4172,0.4176,0.4182,0.4186,0.419,0.4192,0.3329,0.3333,0.3367,0.3401,0.3477,0.3543,0.3554,0.367,0.3781,0.3961,0.4175,0.4257,0.4357,0.4326,0.423,0.4185,0.4479,0.4268,0.4284,0.4307,0.4161,0.4073,0.4013,0.4017,0.4021,0.4025,0.4028,0,0.3207,0.3225,0.3211,0.3236,0.3237,0.3377,0.3455,0.341,0.3458,0.3658,0.3763,0.3552,0.3542,0.3659,0.3515,0.3535,0.3452,0.3376,0.3229,0.3294,0.3349,0.3146,0.2733,0.2728,0.2723,0.2719,0,0,0.312,0.3042,0.3025,0.2974,0.304,0.2971,0.2995,0.3009,0.3066,0.3037,0.3086,0.3377,0.3574,0.3097,0.3057,0.2866,0.3036,0.2756,0.3812,0.3705,0.3753,0.3906,0.3674,0,0,0,0,0]},{"header":{"parameterUnit":"m.s-1","parameterCategory":2,"la1":30.2991,"la2":30.254,"lo1":-89.0895,"lo2":-89.0444,"dy":0.0017,"dx":0.0017,"nx":28,"ny":28,"refTime":"2024-06-24T03:00:00:Z","depth":"2","parameterNumber":3,"parameterNumberName":"V-component_of_CURRENTS"},"data":[0,0,0,0,0,0,0,0,0,0,0,0,0,0,0,0,0,0,0,0,0,0,0,0,0,0,0,0,0,0,0,0,0,0,0,0,0,0,0,0,0,0,0,0,0,0,0,0,0,0,0,0,0,0,0,0,0,0,0.0142,0.0142,0,0.0084,0.0084,0.0083,0.0039,0.0039,0.0039,0.0039,-0.0079,-0.0082,-0.0085,0,0,0,0,0,0,0,0,0,0,0,0,0,0.0162,0.0162,0.0142,0.0142,0.0141,0.0085,0.0084,0.0083,0.0039,0.0039,0.0039,0.0039,-0.0079,-0.0082,-0.0086,0,0,0,0,0,0,0,0,0,0,0,0,0,0.0132,0.0162,0.0142,0.0114,0.0111,0.0085,0.0084,0.0082,0.004,0.0039,0.0039,0.0039,-0.0077,-0.0082,-0.0086,-0.0107,0,0,-0.0099,-0.0101,0,0,0,0,0,0,0,0,0.0134,0.0131,0.0119,0.0116,0.0113,0.007,0.0047,0.0017,0.004,0.0065,0.0039,0.0038,-0.0034,-0.0042,-0.0053,-0.0112,-0.0117,-0.01,-0.0103,-0.0104,-0.0106,0,0,0,0,0,0,0,0.0136,0.0133,0.0118,0.0118,0.0115,0.0086,0.0082,0.0041,0.0016,0.0063,0.006,0.0056,-0.0036,-0.0049,-0.0057,-0.0119,-0.01,-0.0104,-0.0106,-0.0108,-0.0183,-0.0182,0,0,0,0,0,0,0.015,0.0136,0.0119,0.0116,0.0125,0.0087,0.0082,0.0083,0.0017,0.0008,0.0057,0.0055,-0.0041,-0.0051,-0.0061,-0.0063,-0.0104,-0.0109,-0.0111,-0.0183,-0.0183,-0.0182,0,0,0,0,0,0,0.0151,0.015,0.0122,0.0126,0.012,0.0087,0.0088,0.0082,0.0074,0.0014,0.0003,0.0056,-0.0042,-0.0055,-0.0089,-0.0069,-0.0111,-0.0115,-0.0184,-0.0183,-0.0182,-0.0084,0,0,0,0,0,0,0.0152,0.015,0.0155,0.0127,0.0121,0.0122,0.0089,0.0081,0.0073,0.007,0.001,-0.0002,-0.0043,-0.0082,-0.0093,-0.0076,-0.0118,-0.0185,-0.0184,-0.0183,-0.0088,-0.008,-0.0073,0,0,0,0,0,0.0153,0.0167,0.0156,0.0154,0.0129,0.0123,0.0118,0.009,0.0074,0.008,0.0035,0.0,-0.0082,-0.0085,-0.0099,-0.0082,-0.0186,-0.0184,-0.0183,-0.0092,-0.0082,-0.0073,0,0,0,0,0,0,0.0175,0.0163,0.0151,0.0159,0.0148,0.0117,0.012,0.0099,0.0069,0.0064,0.0003,-0.0011,-0.0034,-0.0072,-0.0074,-0.01,-0.0137,-0.0138,-0.0064,-0.0055,-0.0047,-0.002,-0.0122,0,0,0,0,0,0.0184,0.0194,0.0174,0.0182,0.0181,0.0151,0.0144,0.0128,0.0099,0.0086,0.0041,-0.0004,-0.0039,-0.0057,-0.0097,-0.0113,-0.0152,-0.011,-0.0102,-0.0095,-0.0082,-0.0124,-0.0118,-0.0177,-0.0177,-0.0177,0,0,0.0191,0.0189,0.0192,0.0188,0.0177,0.0189,0.0146,0.0147,0.0155,0.0076,0.0068,0.0017,-0.0039,-0.0055,-0.0067,-0.0083,-0.01,-0.0093,-0.0087,-0.0078,-0.0122,-0.0116,-0.0111,-0.0176,-0.0176,-0.0176,0,0,0.0227,0.0216,0.0241,0.024,0.0236,0.022,0.0226,0.0199,0.0187,0.0171,0.0118,0.0082,0.0027,-0.0005,-0.0029,-0.0004,-0.006,-0.0015,0.0048,0.0008,0.0013,0.0017,-0.0024,-0.0025,-0.0007,-0.0007,-0.0007,0,0.0238,0.0269,0.0246,0.0273,0.0283,0.0241,0.0273,0.0255,0.0219,0.0214,0.0183,0.0107,0.0053,0.004,0.0048,0.0014,-0.0018,0.002,0.002,0.0022,0.0024,-0.0019,-0.0021,-0.0002,-0.0003,-0.0003,-0.0004,0,0.0294,0.0319,0.0336,0.0359,0.0363,0.0384,0.0363,0.036,0.0334,0.0308,0.0283,0.0207,0.0169,0.0143,0.0101,0.0097,0.0066,0.0032,0.0,0.0036,-0.0012,-0.0016,0.0005,0.0003,0.0001,0.0,0,0,0.0326,0.0369,0.0376,0.0411,0.0414,0.043,0.0444,0.045,0.047,0.0411,0.0427,0.0349,0.0305,0.0275,0.0215,0.0175,0.0152,0.0121,0.0116,0.0088,0.0066,0.0023,0.0014,0.012,0.012,0.012,0.0027,0,0.0382,0.0461,0.0459,0.053,0.0571,0.0547,0.0571,0.0564,0.0543,0.0543,0.0462,0.0448,0.0358,0.0349,0.0293,0.0196,0.0147,0.0181,0.0028,0.0024,-0.0012,0.001,0.0052,-0.0028,0.0023,0.0022,0.0022,0,0.0443,0.0494,0.0575,0.0639,0.0654,0.0685,0.0726,0.0742,0.072,0.0703,0.0662,0.0597,0.0539,0.0455,0.0303,0.0331,0.021,0.0119,0.0113,0.0039,-0.0026,-0.0058,-0.0038,0.0014,0.0015,0.0015,0.0016,0,0.0497,0.0576,0.0651,0.067,0.0726,0.0764,0.0793,0.0795,0.0834,0.0816,0.0847,0.0733,0.0713,0.0546,0.0358,0.0334,0.0185,0.0124,-0.0036,-0.0041,-0.0051,-0.0057,0.0007,0.0007,0.0007,0.0008,0.0008,0,0.0561,0.0621,0.069,0.0733,0.0835,0.0844,0.0939,0.0945,0.0978,0.1057,0.0947,0.0981,0.0738,0.0622,0.0413,0.0192,0.0223,-0.0017,-0.0064,-0.0017,-0.0019,-0.0021,-0.0023,0.0004,0.0005,0.0006,0.0006,0,0.0606,0.0643,0.0743,0.0829,0.0865,0.0943,0.1056,0.1127,0.1148,0.1253,0.1265,0.1175,0.1022,0.0765,0.0498,0.029,0.0063,-0.0031,0.0038,0.0001,-0.0156,-0.0152,-0.0224,-0.0226,-0.0228,-0.023,-0.0231,0,0.0636,0.0692,0.0821,0.0893,0.0941,0.1059,0.1148,0.1205,0.1302,0.1387,0.1457,0.1342,0.1278,0.0864,0.0475,0.01,0.005,-0.0114,-0.0169,-0.014,-0.0178,-0.0171,-0.0165,-0.0147,-0.0147,-0.0148,-0.0148,0,0.07,0.0744,0.0834,0.0994,0.111,0.124,0.1383,0.1491,0.1589,0.168,0.1772,0.1723,0.1335,0.0955,0.0432,0.0174,-0.0056,-0.0137,-0.0108,-0.0096,-0.0075,-0.011,-0.0104,-0.0152,-0.0151,-0.0151,-0.0151,-0.0151,0.0757,0.0833,0.0961,0.1118,0.1252,0.1431,0.1563,0.1723,0.1898,0.2046,0.1985,0.192,0.1484,0.0804,0.036,-0.0103,-0.0093,-0.0257,-0.0252,-0.0248,-0.0223,-0.0207,-0.0304,-0.0304,-0.0305,-0.0305,-0.0305,0,0.0837,0.0931,0.1076,0.1269,0.1438,0.149,0.1725,0.1859,0.2088,0.2178,0.2219,0.1803,0.1374,0.0879,0.0196,-0.0224,-0.0251,-0.036,-0.0287,-0.028,-0.0275,-0.025,-0.0339,-0.034,-0.0342,-0.0343,0,0,0.0883,0.1033,0.1116,0.1405,0.1542,0.1759,0.1904,0.2089,0.2204,0.2276,0.2227,0.2105,0.1521,0.102,0.0454,0.0067,-0.0014,-0.0021,0.0053,0.0213,0.0224,-0.0169,-0.0117,0,0,0,0,0]}],[{"header":{"parameterUnit":"m.s-1","parameterCategory":2,"la1":30.2991,"la2":30.254,"lo1":-89.0895,"lo2":-89.0444,"dy":0.0017,"dx":0.0017,"nx":28,"ny":28,"refTime":"2024-06-24T03:00:00:Z","depth":"4","parameterNumber":2,"parameterNumberName":"U-component_of_CURRENTS"},"data":[0,0,0,0,0,0,0,0,0,0,0,0,0,0,0,0,0,0,0,0,0,0,0,0,0,0,0,0,0,0,0,0,0,0,0,0,0,0,0,0,0,0,0,0,0,0,0,0,0,0,0,0,0,0,0,0,0,0,0.1972,0.1973,0,0.2062,0.2063,0.2063,0.2133,0.2134,0.2135,0.2135,0.2247,0.2249,0.2251,0,0,0,0,0,0,0,0,0,0,0,0,0,0.1838,0.184,0.1972,0.1973,0.1974,0.2062,0.2063,0.2064,0.2133,0.2134,0.2135,0.2136,0.2246,0.2248,0.2251,0,0,0,0,0,0,0,0,0,0,0,0,0,0.1907,0.1841,0.1971,0.2021,0.2026,0.2061,0.2063,0.2064,0.2133,0.2134,0.2135,0.2136,0.2245,0.2248,0.2251,0.2245,0,0,0.2261,0.2263,0,0,0,0,0,0,0,0,0.1903,0.1912,0.2012,0.2018,0.2024,0.2089,0.2056,0.2126,0.2132,0.209,0.2136,0.2137,0.2196,0.2204,0.2214,0.2251,0.2255,0.2261,0.2263,0.2265,0.2266,0,0,0,0,0,0,0,0.1898,0.1908,0.2005,0.2014,0.2021,0.2031,0.2043,0.207,0.2133,0.2094,0.21,0.2113,0.22,0.2211,0.2218,0.2257,0.2261,0.2264,0.2266,0.2268,0.247,0.2473,0,0,0,0,0,0,0.1892,0.1904,0.2002,0.2008,0.1968,0.2033,0.2045,0.2065,0.2133,0.2145,0.2111,0.2116,0.2205,0.2214,0.2222,0.2357,0.2265,0.2268,0.227,0.2467,0.2471,0.2474,0,0,0,0,0,0,0.1888,0.19,0.1999,0.1959,0.1973,0.2034,0.2056,0.2066,0.2125,0.2147,0.2159,0.2164,0.2206,0.2217,0.2302,0.2356,0.2269,0.2272,0.2463,0.2468,0.2473,0.2538,0,0,0,0,0,0,0.1884,0.1898,0.193,0.1959,0.1975,0.2048,0.2055,0.2067,0.2129,0.2136,0.2195,0.2204,0.2208,0.2298,0.2305,0.2359,0.2275,0.2458,0.2465,0.2471,0.2531,0.2544,0.2556,0,0,0,0,0,0.1879,0.1906,0.1931,0.1944,0.201,0.2049,0.2059,0.2104,0.2131,0.2161,0.2217,0.2205,0.2344,0.2303,0.2311,0.2367,0.2455,0.2463,0.2471,0.2526,0.2542,0.2555,0,0,0,0,0,0,0.1857,0.1917,0.1945,0.1989,0.2032,0.2063,0.21,0.213,0.2196,0.2223,0.2241,0.2254,0.2356,0.2356,0.231,0.245,0.2401,0.241,0.244,0.2455,0.2467,0.2477,0.2277,0,0,0,0,0,0.1869,0.1916,0.1961,0.2002,0.2027,0.2074,0.2105,0.214,0.2191,0.2223,0.2265,0.2323,0.2385,0.2417,0.2467,0.253,0.2543,0.2577,0.2589,0.2599,0.2617,0.2683,0.2702,0.25,0.25,0.25,0,0,0.1878,0.1913,0.1945,0.2004,0.2043,0.2089,0.2097,0.216,0.2217,0.2224,0.2326,0.2373,0.2418,0.2503,0.2546,0.2512,0.2667,0.2609,0.2617,0.263,0.2693,0.2712,0.2729,0.2505,0.2504,0.2503,0,0,0.1897,0.1947,0.1992,0.2033,0.2102,0.2129,0.2158,0.2221,0.2274,0.2363,0.24,0.2482,0.256,0.2605,0.2636,0.2747,0.2739,0.2771,0.2827,0.2891,0.2907,0.2922,0.2965,0.2983,0.2764,0.2765,0.2765,0,0.1911,0.1967,0.2009,0.2055,0.2099,0.2153,0.2206,0.2262,0.2351,0.2405,0.2413,0.2576,0.2609,0.2719,0.2766,0.2773,0.2804,0.2758,0.2904,0.2919,0.2932,0.2973,0.2992,0.2769,0.2768,0.2768,0.2767,0,0.1951,0.2015,0.2042,0.2124,0.2171,0.2229,0.23,0.2375,0.2443,0.2497,0.2638,0.2693,0.2785,0.2814,0.2826,0.2952,0.2942,0.2916,0.2855,0.2956,0.2993,0.3012,0.2774,0.2773,0.2772,0.2771,0,0,0.1947,0.2053,0.2074,0.2115,0.2219,0.225,0.2363,0.2466,0.2548,0.2646,0.2749,0.2871,0.291,0.2951,0.298,0.3037,0.3158,0.3027,0.3028,0.3051,0.3302,0.3092,0.3091,0.316,0.3164,0.3167,0.3287,0,0.1978,0.2057,0.2118,0.2209,0.225,0.2343,0.2431,0.2536,0.2634,0.2744,0.2836,0.2948,0.2958,0.3017,0.3082,0.3156,0.3212,0.3128,0.3218,0.3221,0.3006,0.3107,0.3178,0.3301,0.3305,0.3308,0.331,0,0.1997,0.205,0.2138,0.2242,0.2274,0.2348,0.2495,0.2588,0.2753,0.2837,0.2966,0.3031,0.3174,0.3141,0.3315,0.3268,0.3302,0.3332,0.3337,0.313,0.3044,0.3183,0.3343,0.334,0.3338,0.3335,0.3334,0,0.1933,0.2059,0.2125,0.2166,0.2297,0.2377,0.2467,0.2628,0.2719,0.2914,0.2996,0.3152,0.3253,0.3336,0.3419,0.3388,0.3571,0.3521,0.3361,0.3346,0.3466,0.345,0.3625,0.3625,0.3625,0.3625,0.3624,0,0.1906,0.1959,0.2111,0.2143,0.2234,0.2353,0.2483,0.2599,0.2778,0.2881,0.3046,0.3142,0.3313,0.3423,0.3465,0.3477,0.3615,0.3395,0.3371,0.3492,0.3477,0.3479,0.346,0.3629,0.3628,0.3627,0.3626,0,0.1786,0.19,0.197,0.2136,0.22,0.2263,0.2465,0.2542,0.2752,0.2895,0.2963,0.3185,0.3342,0.3461,0.3608,0.352,0.3553,0.3513,0.3654,0.3632,0.3273,0.3258,0.3345,0.3339,0.3333,0.3329,0.3325,0,0.172,0.1748,0.1927,0.1972,0.2054,0.2189,0.2271,0.25,0.2586,0.2891,0.2926,0.3161,0.3284,0.3334,0.3475,0.3535,0.3491,0.3466,0.3352,0.3281,0.325,0.3242,0.3234,0.3317,0.3315,0.3314,0.3313,0,0.1571,0.1655,0.1714,0.1817,0.1916,0.201,0.216,0.2213,0.2479,0.2688,0.2835,0.2937,0.3103,0.3218,0.3288,0.3319,0.3459,0.341,0.3419,0.3312,0.3248,0.322,0.3218,0.3294,0.3297,0.3299,0.33,0,0.146,0.1455,0.1556,0.1632,0.174,0.18,0.1912,0.2043,0.2179,0.2523,0.2572,0.2843,0.3072,0.3109,0.3178,0.3193,0.3141,0.3012,0.3042,0.3063,0.2915,0.2788,0.2691,0,0,0,0,0,0.1338,0.1318,0.136,0.1449,0.1545,0.1625,0.1812,0.1939,0.2215,0.2244,0.2409,0.2557,0.2704,0.2848,0.281,0.3041,0.3133,0.2979,0.2994,0.3192,0.3214,0.3064,0,0,0,0,0,0,0.1253,0.127,0.1295,0.1287,0.1312,0.1414,0.1532,0.172,0.1766,0.2056,0.2158,0.2376,0.2561,0.2698,0.2753,0.2792,0.2742,0.315,0.3143,0.318,0.32,0.3217,0.307,0,0,0,0,0]},{"header":{"parameterUnit":"m.s-1","parameterCategory":2,"la1":30.2991,"la2":30.254,"lo1":-89.0895,"lo2":-89.0444,"dy":0.0017,"dx":0.0017,"nx":28,"ny":28,"refTime":"2024-06-24T03:00:00:Z","depth":"4","parameterNumber":3,"parameterNumberName":"V-component_of_CURRENTS"},"data":[0,0,0,0,0,0,0,0,0,0,0,0,0,0,0,0,0,0,0,0,0,0,0,0,0,0,0,0,0,0,0,0,0,0,0,0,0,0,0,0,0,0,0,0,0,0,0,0,0,0,0,0,0,0,0,0,0,0,0.023,0.023,0,0.0203,0.0203,0.0203,0.0195,0.0195,0.0195,0.0195,0.0113,0.0111,0.0109,0,0,0,0,0,0,0,0,0,0,0,0,0,0.0249,0.0249,0.023,0.023,0.0229,0.0203,0.0203,0.0203,0.0195,0.0195,0.0195,0.0195,0.0114,0.0112,0.0109,0,0,0,0,0,0,0,0,0,0,0,0,0,0.0234,0.0249,0.023,0.0222,0.0221,0.0203,0.0203,0.0203,0.0195,0.0195,0.0195,0.0195,0.0115,0.0112,0.0109,0.0086,0,0,0.0098,0.0097,0,0,0,0,0,0,0,0,0.0235,0.0234,0.0223,0.0222,0.0221,0.0202,0.018,0.0161,0.0195,0.0206,0.0195,0.0195,0.0137,0.0132,0.0129,0.0082,0.0079,0.0098,0.0096,0.0094,0.0094,0,0,0,0,0,0,0,0.0236,0.0235,0.0221,0.0223,0.0222,0.021,0.0209,0.0176,0.0171,0.0205,0.0204,0.02,0.0136,0.0132,0.0127,0.0077,0.0098,0.0095,0.0093,0.0092,0.001,0.001,0,0,0,0,0,0,0.0239,0.0236,0.0221,0.022,0.0227,0.021,0.0208,0.0209,0.0173,0.0167,0.02,0.0199,0.0138,0.0131,0.0124,0.0104,0.0094,0.0091,0.0089,0.001,0.001,0.0009,0,0,0,0,0,0,0.0239,0.0238,0.0222,0.0226,0.0223,0.021,0.021,0.0208,0.0209,0.0169,0.0163,0.0203,0.0138,0.0128,0.0099,0.0101,0.009,0.0087,0.001,0.001,0.001,0.0059,0,0,0,0,0,0,0.024,0.0239,0.0241,0.0226,0.0223,0.0217,0.021,0.0207,0.0205,0.0205,0.0169,0.0162,0.0137,0.0104,0.0096,0.0096,0.0084,0.001,0.001,0.001,0.0057,0.006,0.0063,0,0,0,0,0,0.0241,0.0242,0.0242,0.024,0.0227,0.0217,0.0215,0.0205,0.0205,0.0207,0.0182,0.0163,0.0096,0.0101,0.0091,0.0091,0.001,0.001,0.001,0.0056,0.006,0.0062,0,0,0,0,0,0,0.0245,0.0241,0.024,0.0239,0.0232,0.0216,0.0215,0.021,0.0194,0.0194,0.0159,0.015,0.0123,0.0099,0.0105,0.0065,0.005,0.0048,0.0089,0.0092,0.0095,0.0106,0.0081,0,0,0,0,0,0.0249,0.0255,0.0244,0.0243,0.0242,0.0231,0.0227,0.0223,0.0205,0.02,0.0174,0.0144,0.0113,0.0097,0.0066,0.0044,0.0009,0.0036,0.0039,0.0042,0.0044,-0.0007,-0.0009,0.0008,0.0008,0.0008,0,0,0.0248,0.0249,0.0249,0.0245,0.0241,0.0244,0.023,0.0228,0.0231,0.0191,0.0183,0.015,0.0108,0.0085,0.0071,0.0066,0.0018,0.0041,0.0044,0.0044,-0.0008,-0.001,-0.0011,0.0008,0.0008,0.0008,0,0,0.0256,0.0254,0.0264,0.0264,0.0263,0.0255,0.0257,0.0246,0.0242,0.0229,0.0199,0.0168,0.0128,0.0097,0.0076,0.0073,0.0032,0.0064,0.0089,0.004,0.0038,0.0036,-0.001,-0.0016,0.0068,0.0068,0.0068,0,0.0255,0.0273,0.0264,0.0277,0.0282,0.0263,0.0278,0.0267,0.0248,0.0244,0.0233,0.0169,0.0133,0.0099,0.0099,0.0079,0.0046,0.0083,0.0044,0.0041,0.0038,-0.0009,-0.0016,0.0071,0.007,0.007,0.007,0,0.0276,0.0292,0.0298,0.0313,0.0312,0.0322,0.0309,0.031,0.0301,0.0285,0.0254,0.0201,0.0167,0.0146,0.0122,0.0086,0.0067,0.0052,0.0039,0.004,-0.001,-0.0019,0.0074,0.0073,0.0072,0.0072,0,0,0.0274,0.0308,0.0312,0.0341,0.0338,0.0348,0.0349,0.0347,0.0362,0.0317,0.0318,0.0251,0.0222,0.0196,0.0154,0.0108,0.0057,0.0078,0.0074,0.0039,-0.0051,-0.0058,-0.0069,0.0037,0.0035,0.0034,-0.0077,0,0.0298,0.0347,0.0346,0.0389,0.0418,0.0407,0.0416,0.0409,0.0395,0.0386,0.0317,0.0298,0.024,0.0233,0.0172,0.0092,0.0036,0.0089,-0.0052,-0.0056,-0.0057,-0.0078,0.003,-0.0084,-0.0086,-0.0088,-0.0089,0,0.0324,0.0361,0.0412,0.0462,0.0472,0.0488,0.0517,0.0525,0.0495,0.0484,0.0434,0.038,0.0304,0.0261,0.0106,0.0144,0.005,-0.0022,-0.0028,-0.0058,-0.008,-0.0087,-0.0106,-0.0104,-0.0103,-0.0102,-0.0101,0,0.0358,0.0409,0.0461,0.0476,0.0517,0.0543,0.0564,0.0558,0.0591,0.0552,0.0562,0.0444,0.0411,0.0267,0.0111,0.0111,-0.0064,-0.0081,-0.0185,-0.0186,-0.0167,-0.0164,-0.02,-0.02,-0.02,-0.0199,-0.0199,0,0.0392,0.0438,0.0491,0.0524,0.0601,0.0605,0.0679,0.0678,0.069,0.0731,0.0625,0.0618,0.0413,0.0288,0.0128,-0.0055,-0.0056,-0.0188,-0.0218,-0.0144,-0.0137,-0.0174,-0.0169,-0.0204,-0.0203,-0.0202,-0.0201,0,0.0427,0.0454,0.0533,0.0596,0.0625,0.0688,0.0781,0.0834,0.0829,0.0878,0.0873,0.0752,0.0586,0.0366,0.0132,-0.0008,-0.0194,-0.0262,-0.0166,-0.0187,-0.0291,-0.0282,-0.0387,-0.0388,-0.0389,-0.039,-0.0391,0,0.0449,0.0493,0.0598,0.0657,0.0695,0.0794,0.0867,0.0906,0.0966,0.0964,0.0987,0.0843,0.0732,0.04,0.0152,-0.0173,-0.022,-0.0322,-0.0318,-0.0292,-0.0312,-0.0301,-0.0292,-0.0392,-0.0393,-0.0393,-0.0393,0,0.05,0.054,0.0607,0.0732,0.0826,0.0942,0.1043,0.1098,0.1142,0.1137,0.1091,0.0905,0.0709,0.0419,0.0158,-0.0073,-0.026,-0.0334,-0.0333,-0.033,-0.03,-0.0316,-0.0305,-0.0397,-0.0396,-0.0396,-0.0396,0,0.0541,0.0598,0.069,0.0803,0.0927,0.1047,0.1102,0.1169,0.1226,0.121,0.1191,0.0966,0.0829,0.047,0.0235,-0.0004,-0.0066,-0.0141,-0.0152,-0.0151,-0.0059,0.0015,-0.0014,0,0,0,0,0,0.0576,0.0643,0.0751,0.0877,0.1003,0.1079,0.12,0.1242,0.1283,0.1269,0.1234,0.1049,0.0692,0.0534,0.0296,0.0196,-0.0121,-0.0093,-0.0216,-0.0417,-0.0413,-0.0346,0,0,0,0,0,0,0.0597,0.0698,0.0755,0.0925,0.1016,0.1166,0.1248,0.1276,0.1269,0.126,0.1077,0.0983,0.0636,0.0827,0.0288,0.0214,0.0102,-0.0261,-0.0267,-0.0419,-0.0415,-0.0412,-0.0342,0,0,0,0,0]}]]